Location: Saint-Restitut
(44.3351°N, 4.7915°E)
Time: 12:50:21
(UTC+00:00)

Cosmos 1844 - Pass Details

Date: 03 February 2023
Orbit: 821 x 868 km, 70.9° (Epoch: 19 March)

Event Time Altitude Azimuth Distance (km) Brightness Sun altitude
Rises 17:56:59 0° 337° (NNW) 3,464 7.0 -11.8°
Reaches altitude 10° 17:59:32 10° 342° (NNW) 2,522 6.3 -12.3°
Maximum altitude 18:05:14 56° 60° (ENE) 1,027 3.8 -13.3°
Drops below altitude 10° 18:10:53 10° 138° (SE) 2,492 5.8 -14.3°
Sets 18:13:22 0° 143° (SE) 3,419 6.6 -14.7°
